Regional Weather Roundup
Issued by NWS Kansas City/Pleasant Hill, MO

Home | Current Version | Previous Version | Text Only | Print | Product List | Glossary On
Versions: 1 2 3 4 5 6 7 8 9 10 11 12 13 14 15 16 17 18 19 20 21 22 23 24 25 26 27 28 29 30 31 32 33 34 35 36 37 38 39 40 41 42 43 44 45 46 47 48 49 50
000
ASUS43 KEAX 272111
RWREAX

WEATHER ROUNDUP FOR EASTERN KANSAS AND NORTHWEST MISSOURI
NATIONAL WEATHER SERVICE KANSAS CITY/PLEASANT HILL MO
300 PM CST TUE JAN 27 2015

KSZ040-057-103>105-MOZ028-029-037-043-272200-
...KANSAS CITY METROPOLITAN AREA...

CITY           SKY/WX    TMP DP  RH WIND       PRES   REMARKS
K.C. INTL      MOSUNNY   55  32  41 S7        30.09F
K.C. DOWNTOWN  SUNNY     57  30  35 E5        30.09F
LEES SUMMIT    SUNNY     56  30  37 SE5       30.10F
OLATHE - IXD   SUNNY     56  32  40 SE8       30.10F
OLATHE - OJC   SUNNY     57  32  38 SE8       30.09F
LAWRENCE       SUNNY     57  32  38 SE7       30.09F

$$

MOZ001>008-011>017-020>025-030>033-038>040-044>046-053-054-272200-
...NORTHERN AND CENTRAL MISSOURI...

CITY           SKY/WX    TMP DP  RH WIND       PRES   REMARKS
ST. JOSEPH     SUNNY     54  32  43 SE7       30.09F
MOSBY          CLEAR     52  32  46 SE5       30.10F
WARRENSBURG    SUNNY     54  32  43 SE5       30.11S
WHITEMAN AFB   SUNNY     53  33  47 SE6       30.11F
CLINTON        SUNNY     55  32  41 CALM      30.12S
SEDALIA        SUNNY     52  32  46 NE3       30.13F
WARSAW         NOT AVBL
MARSHALL       SUNNY     52  36  54 E5        30.13F
CHILLICOTHE      N/A     50  33  52 SE3       30.14S
MOBERLY        SUNNY     48  32  53 N3        30.15S
KIRKSVILLE     SUNNY     45  33  63 E5        30.15S

$$

MOZ041-047>049-056>058-063>065-088>090-097-272200-
...EASTERN AND SOUTHERN MISSOURI...

CITY           SKY/WX    TMP DP  RH WIND       PRES   REMARKS
ST. LOUIS INTL PTSUNNY   44  31  60 N5        30.17R
SPIRIT OF STL  MOSUNNY   45  31  58 N5        30.15S
COLUMBIA       SUNNY     50  32  50 CALM      30.13F
JEFFERSON CITY SUNNY     51  33  50 N5        30.13F
MEXICO         MOSUNNY   48  37  66 N3        30.15S
HANNIBAL       MOSUNNY   46  28  49 NE3       30.17R
ROLLA          SUNNY     50  31  48 MISG      30.11S
LEBANON        SUNNY     55  27  33 CALM      30.12R
OSAGE BEACH    SUNNY     54  30  40 CALM      30.12F
SPRINGFIELD    SUNNY     58  27  30 CALM      30.10F
BRANSON        SUNNY     63  28  27 N5        30.12F
NEVADA         SUNNY     57  32  38 CALM      30.12F
JOPLIN         SUNNY     63  27  25 CALM      30.12S
WEST PLAINS    SUNNY     58  28  32 N5        30.11S

$$

IAZ060-094-KSZ022-034>040-054-083-096-NEZ052-066-093-272200-
...KANSAS...SOUTHEAST NEBRASKA AND IOWA...

CITY           SKY/WX    TMP DP  RH WIND       PRES   REMARKS
TOPEKA         SUNNY     60  32  34 SE12      30.06F
MANHATTAN      SUNNY     64  35  34 S15       30.02F
EMPORIA        SUNNY     62  34  35 S15       30.05F
CHANUTE        SUNNY     62  33  33 S10       30.09F
WICHITA        MOSUNNY   71  35  26 S16       30.02F
OMAHA          MOSUNNY   52  34  50 S10       30.05F
LINCOLN        SUNNY     58  33  39 SE12      30.02F
FALLS CITY     SUNNY     56  31  38 SE10      30.05F
LAMONI         SUNNY     49  31  49 VRB7      30.11S
DES MOINES     MOSUNNY   46  30  53 E7        30.13F

$$



USA.gov is the U.S. government's official web portal to all federal, state and local government web resources and services.